Weather Service Report


136 
ASUS42 KCAE 231910
RWRCAE
REGIONAL WEATHER ROUNDUP
NATIONAL WEATHER SERVICE COLUMBIA SC
300 PM EDT SAT AUG 23 2014

NOTE: "FAIR" INDICATES FEW OR NO CLOUDS BELOW 12,000 FEET WITH NO
SIGNIFICANT WEATHER AND/OR OBSTRUCTIONS TO VISIBILITY.

NOT ALL STATIONS ARE QUALITY CONTROLLED BY THE NATIONAL 
WEATHER SERVICE. USE DATA WITH CAUTION...ESPECIALLY 
DEWPOINT OBSERVATIONS.

SCZ001>056-GAZ040-063>065-077-232000-
...UPSTATE SOUTH CAROLINA...
  
CITY           SKY/WX    TMP DP  RH WIND       PRES   REMARKS
ANDERSON       MOSUNNY   93  66  40 NW6       29.95F HX  96           
LIBERTY        FAIR      92  89  91 SW3       29.97R HX 134           
SPARTANBURG    FAIR      91  72  52 E5        29.95F HX  98           
CLEMSON        SUNNY     96  68  39 NE5       29.97S HX 101           
GREENVILLE     PTSUNNY   92  66  42 W7        29.96F                  
GREENWOOD      SUNNY     97  64  33 CALM      29.94F HX  99           
GREER          PTSUNNY   91  70  49 VRB5      29.94F HX  96           
ROCK HILL      MOSUNNY   89  70  53 N13       29.95F                  
CHESTER        FAIR      93  64  38 N12       29.95F HX  95           
LAURENS        FAIR      91  55  29 NE5       29.95F                  


...CENTRAL SOUTH CAROLINA...
  
CITY           SKY/WX    TMP DP  RH WIND       PRES   REMARKS
COLUMBIA APT   PTSUNNY   97  66  36 N6        29.89F HX 100           
COLUMBIA OWENS MOSUNNY   97  67  37 VRB5      29.90F HX 101           
DARLINGTON     MOSUNNY   93  73  52 N7        29.91F HX 102           
FLORENCE       MOSUNNY   94  72  48 VRB7      29.89F HX 102           
MCENTIRE ANGB  MOSUNNY   95  70  44 NE10      29.90F HX 101           
ORANGEBURG     MOSUNNY   97  69  40 CALM      29.89F HX 103           
SUMTER SHAW    MOSUNNY   94  74  51 VRB6      29.89F HX 104           
NEWBERRY       MOCLDY    91  63  38 N5        29.95F                  
AIKEN          MOCLDY    99  72  41 N6        29.94F HX 107           
BARNWELL       FAIR      99  66  34 N8        29.90S HX 102           
MANNING        FAIR      97  77  52 NW3       29.88F HX 112           
CAMDEN         FAIR      91  66  43 CALM      29.92F                  
LANCASTER      FAIR      91  70  49 E7        29.94F HX  97           
WINNSBORO      FAIR      91  70  49 NW7       29.93F HX  97           


...EASTERN AND COASTAL SOUTH CAROLINA...
  
CITY           SKY/WX    TMP DP  RH WIND       PRES   REMARKS
MYRTLE BEACH   PTSUNNY   90  79  70 SE9       29.88F HX 105           
N MYRTLE BCH   LGT RAIN  85  81  88 SE9       29.86F HX 100           
CONWAY         FAIR      91  73  55 CALM      29.87F HAZE    HX 100   
MARION         FAIR      91  72  52 N6        29.89S HX  98           
HARTSVILLE     FAIR      93  43  17 W3        29.92F                  
FLORENCE       MOSUNNY   94  72  48 VRB7      29.89F HX 102           
DARLINGTON     MOSUNNY   93  73  52 N7        29.91F HX 102           
CHARLESTON APT MOSUNNY   99  73  43 VRB6      29.87F HX 109           
MOUNT PLEASANT FAIR      97  70  41 CALM      29.86F HX 103           
WALTERBORO     PTCLDY    99  63  30 N6        29.88F HX 100           
BEAUFORT       SUNNY     99  68  36 N7        29.87F HX 104           


...EASTERN GEORGIA...
  
CITY           SKY/WX    TMP DP  RH WIND       PRES   REMARKS
AUGUSTA BUSH F MOSUNNY   99  66  33 N9        29.89F HX 103           
AUGUSTA DANIEL MOSUNNY   99  65  32 W8        29.91F HX 102           
THOMSON        MOSUNNY   98  76  49 N6        29.96F HX 110           
WASHINGTON     FAIR     100  72  39 CALM      29.92F HX 109           
CLAXTON        FAIR     100  72  39 NW8       29.90F HX 109           
SYLVANIA       CLEAR     97  73  45 N10       29.90F HX 107           
STATESBORO     SUNNY     96  72  45 N8        29.90F HX 105           
SAVANNAH       MOSUNNY  100  68  35 N14       29.89F HX 105           


...SOUTHERN NORTH CAROLINA...
  
CITY           SKY/WX    TMP DP  RH WIND       PRES   REMARKS
CHARLOTTE      MOSUNNY   89  68  49 N9        29.96F                  
MONROE         PTSUNNY   88  71  57 N3        29.94F                  
WADESBORO      MOCLDY    90  69  49 NW6       29.91F HX  95           
ROCKINGHAM     PTCLDY    89  72  56 NW7       29.91F HX  95           
RUTHERFORDTON  PTSUNNY   89  71  56 CALM      29.97F HX  95           
ASHEVILLE      MOSUNNY   88  65  46 N15G22    30.04F                  

$$

Return to Home page


Western Regional Climate Center, wrcc@dri.edu